Location: Gibsondale
(40.9931°N, 80.2478°W)
Time: 07:33:26
(UTC+00:00)

SKYMED 2 - Pass Details

Date: 29 October 2020
Orbit: 621 x 623 km, 97.9° (Epoch: 28 November)

Event Time Altitude Azimuth Distance (km) Brightness Sun altitude
Rises 22:43:21 0° 24° (NNE) 2,910 6.6 -5.1°
Reaches altitude 10° 22:45:49 10° 36° (NE) 1,998 5.7 -5.6°
Maximum altitude 22:49:35 28° 96° (E) 1,163 4.5 -6.2°
Drops below altitude 10° 22:53:19 10° 156° (SSE) 1,984 6.0 -6.9°
Sets 22:55:44 0° 168° (SSE) 2,885 7.0 -7.4°
